Wildwood, NJ

3:27 AM EDT on May 28, 2017 (GMT -0400)
Cape May County

Weather History for KWWD - July, 2013

Change the Weather History Date:

Tuesday, July 23, 2013

  Actual Average Record
Temperature  
Mean Temperature 80 °F -  
Max Temperature 87 °F 79 °F 98 °F (2011)
Min Temperature 73 °F 65 °F 60 °F (2000)
Cooling Degree Days 15    
Growing Degree Days 30 (Base 50)    
Moisture  
Dew Point 72 °F    
Average Humidity 80    
Maximum Humidity 94    
Minimum Humidity 62    
Precipitation  
Precipitation 0.10 in - - ()
Sea Level Pressure  
Sea Level Pressure 29.69 in    
Wind  
Wind Speed 8 mph (SW)    
Max Wind Speed 15 mph    
Max Gust Speed 20 mph    
Visibility 9 miles    
Events Thunderstorm    
Averages and records for this station are not official NWS values.
T = Trace of Precipitation, MM = Missing Value Source: NWS Daily Summary

Daily Weather History Graph

Daily Weather History Graph

Search for Another Location

Airport or City:

Trip Planner

Search our weather history database for the weather conditions in past years. The results will help you decide how hot, cold, wet, or windy it might be!

Date:

Astronomy

Jul. 23, 2013 Rise Set
Actual Time 5:52 AM EDT 8:19 PM EDT
Civil Twilight 5:22 AM EDT 8:49 PM EDT
Nautical Twilight 4:44 AM EDT 9:27 PM EDT
Astronomical Twilight 4:02 AM EDT 10:08 PM EDT
Moon 8:46 PM EDT (7/23) 6:57 AM EDT (7/23)
Length of Visible Light 15h 27m
Length of Day
14h 26m
Full, 99% of the Moon is Illuminated
Jul 23
Full
Jul 29
Last Quarter
Aug 6
New
Aug 14
First Quarter
Aug 20
Full

Hourly Weather History & Observations

Time (EDT) Temp. Heat Index Dew Point Humidity Pressure Visibility Wind Dir Wind Speed Gust Speed Precip Events Conditions
12:15 AM 75.2 °F - 71.6 °F 89% 29.79 in 9.0 mi South 10.4 mph - N/A   Overcast
12:35 AM 75.2 °F - 73.4 °F 94% 29.79 in 10.0 mi South 8.1 mph - N/A   Overcast
12:55 AM 75.2 °F - 73.4 °F 94% 29.78 in 9.0 mi South 10.4 mph - N/A   Overcast
1:15 AM 75.2 °F - 73.4 °F 94% 29.78 in 7.0 mi South 12.7 mph - N/A   Overcast
1:35 AM 75.2 °F - 71.6 °F 89% 29.77 in 7.0 mi South 10.4 mph - N/A   Overcast
1:55 AM 75.2 °F - 71.6 °F 89% 29.76 in 8.0 mi South 6.9 mph - N/A   Overcast
2:15 AM 75.2 °F - 71.6 °F 89% 29.76 in 7.0 mi South 6.9 mph - N/A   Overcast
2:35 AM 75.2 °F - 71.6 °F 89% 29.75 in 6.0 mi South 8.1 mph - N/A   Overcast
2:55 AM 73.4 °F - 71.6 °F 94% 29.74 in 7.0 mi SSW 8.1 mph - N/A   Overcast
3:15 AM 73.4 °F - 71.6 °F 94% 29.73 in 7.0 mi South 8.1 mph - N/A   Mostly Cloudy
3:35 AM 73.4 °F - 71.6 °F 94% 29.73 in 5.0 mi South 6.9 mph - N/A   Scattered Clouds
3:55 AM 73.4 °F - 71.6 °F 94% 29.72 in 5.0 mi SSW 5.8 mph - N/A   Partly Cloudy
4:15 AM 73.4 °F - 71.6 °F 94% 29.72 in 6.0 mi SSW 4.6 mph - N/A   Clear
4:35 AM 73.4 °F - 71.6 °F 94% 29.72 in 7.0 mi SSW 5.8 mph - N/A   Scattered Clouds
4:55 AM 73.4 °F - 71.6 °F 94% 29.72 in 7.0 mi SW 6.9 mph - N/A   Scattered Clouds
5:15 AM 75.2 °F - 71.6 °F 89% 29.72 in 8.0 mi WSW 10.4 mph - N/A   Mostly Cloudy
5:35 AM 73.4 °F - 69.8 °F 88% 29.72 in 10.0 mi SW 4.6 mph - 0.02 in   Overcast
5:55 AM 73.4 °F - 69.8 °F 88% 29.72 in 10.0 mi SW 3.5 mph - 0.02 in   Partly Cloudy
6:15 AM 73.4 °F - 69.8 °F 88% 29.73 in 10.0 mi WSW 3.5 mph - N/A   Mostly Cloudy
6:35 AM 73.4 °F - 69.8 °F 88% 29.73 in 10.0 mi SSW 4.6 mph - N/A   Overcast
6:55 AM 73.4 °F - 71.6 °F 94% 29.72 in 10.0 mi SSW 4.6 mph - N/A   Mostly Cloudy
7:15 AM 75.2 °F - 71.6 °F 89% 29.72 in 10.0 mi SSW 4.6 mph - N/A   Partly Cloudy
7:35 AM 75.2 °F - 71.6 °F 89% 29.72 in 10.0 mi SSW 4.6 mph - N/A   Mostly Cloudy
7:55 AM 78.8 °F - 71.6 °F 78% 29.71 in 10.0 mi SSW 5.8 mph - N/A   Overcast
8:15 AM 78.8 °F - 73.4 °F 83% 29.71 in 10.0 mi SW 8.1 mph - N/A   Partly Cloudy
8:35 AM 80.6 °F 85.4 °F 73.4 °F 79% 29.70 in 10.0 mi SW 10.4 mph - N/A   Partly Cloudy
8:55 AM 80.6 °F 85.4 °F 73.4 °F 79% 29.70 in 10.0 mi WSW 9.2 mph - N/A   Clear
9:15 AM 80.6 °F 85.4 °F 73.4 °F 79% 29.70 in 10.0 mi SW 10.4 mph - N/A   Mostly Cloudy
9:35 AM 80.6 °F 86.2 °F 75.2 °F 84% 29.70 in 10.0 mi SW 15.0 mph 19.6 mph N/A   Scattered Clouds
9:55 AM 82.4 °F 89.5 °F 75.2 °F 79% 29.70 in 10.0 mi WSW 12.7 mph 19.6 mph N/A   Clear
10:15 AM 82.4 °F 88.2 °F 73.4 °F 74% 29.70 in 10.0 mi SW 13.8 mph 18.4 mph N/A   Partly Cloudy
10:35 AM 82.4 °F 88.2 °F 73.4 °F 74% 29.69 in 10.0 mi SW 12.7 mph 17.3 mph N/A   Partly Cloudy
10:55 AM 84.2 °F 92.3 °F 75.2 °F 74% 29.69 in 10.0 mi SW 10.4 mph - N/A   Clear
11:15 AM 84.2 °F 90.9 °F 73.4 °F 70% 29.69 in 10.0 mi WSW 13.8 mph - N/A   Clear
11:35 AM 84.2 °F 90.9 °F 73.4 °F 70% 29.69 in 10.0 mi WSW 10.4 mph - N/A   Clear
11:55 AM 84.2 °F 90.9 °F 73.4 °F 70% 29.68 in 10.0 mi SW 9.2 mph - N/A   Clear
12:15 PM 86.0 °F 93.4 °F 73.4 °F 66% 29.68 in 10.0 mi SW 10.4 mph - N/A   Partly Cloudy
12:35 PM 87.8 °F 95.6 °F 73.4 °F 62% 29.68 in 10.0 mi SSW 9.2 mph 17.3 mph N/A   Scattered Clouds
12:55 PM 87.8 °F 95.6 °F 73.4 °F 62% 29.68 in 10.0 mi WSW 11.5 mph 18.4 mph N/A   Mostly Cloudy
1:15 PM 87.8 °F 95.6 °F 73.4 °F 62% 29.67 in 10.0 mi SW 12.7 mph 18.4 mph N/A   Mostly Cloudy
1:35 PM 86.0 °F 93.4 °F 73.4 °F 66% 29.68 in 10.0 mi West 11.5 mph 18.4 mph N/A   Scattered Clouds
1:55 PM 80.6 °F 85.4 °F 73.4 °F 79% 29.66 in 10.0 mi West 9.2 mph - N/A   Mostly Cloudy
2:15 PM 80.6 °F 85.4 °F 73.4 °F 79% 29.67 in 5.0 mi West 10.4 mph - 0.05 in   Mostly Cloudy
2:35 PM 78.8 °F - 73.4 °F 83% 29.67 in 10.0 mi WSW 6.9 mph - 0.08 in Thunderstorm Thunderstorm
2:55 PM 82.4 °F 89.5 °F 75.2 °F 79% 29.67 in 10.0 mi West 6.9 mph - 0.08 in Thunderstorm Clear
3:15 PM 82.4 °F 88.2 °F 73.4 °F 74% 29.66 in 10.0 mi WSW 4.6 mph - N/A   Scattered Clouds
3:35 PM 84.2 °F 90.9 °F 73.4 °F 70% 29.65 in 10.0 mi West 5.8 mph - N/A   Partly Cloudy
3:55 PM 84.2 °F 90.9 °F 73.4 °F 70% 29.65 in 10.0 mi West 9.2 mph - N/A   Clear
4:15 PM 84.2 °F 90.9 °F 73.4 °F 70% 29.64 in 10.0 mi WSW 8.1 mph - N/A   Clear
4:35 PM 84.2 °F 90.9 °F 73.4 °F 70% 29.64 in 10.0 mi WNW 6.9 mph - N/A   Mostly Cloudy
4:55 PM 84.2 °F 90.9 °F 73.4 °F 70% 29.64 in 10.0 mi West 9.2 mph - N/A   Partly Cloudy
5:15 PM 84.2 °F 90.9 °F 73.4 °F 70% 29.64 in 10.0 mi West 8.1 mph - N/A   Clear
5:35 PM 82.4 °F 87.2 °F 71.6 °F 70% 29.64 in 10.0 mi WNW 5.8 mph - N/A   Partly Cloudy
5:55 PM 84.2 °F 90.9 °F 73.4 °F 70% 29.63 in 10.0 mi West 9.2 mph - N/A   Partly Cloudy
6:15 PM 84.2 °F 90.9 °F 73.4 °F 70% 29.63 in 10.0 mi West 8.1 mph - N/A   Clear
6:35 PM 84.2 °F 90.9 °F 73.4 °F 70% 29.63 in 10.0 mi West 5.8 mph - N/A   Clear
6:55 PM 84.2 °F 89.6 °F 71.6 °F 66% 29.64 in 10.0 mi West 5.8 mph - N/A   Clear
7:15 PM 82.4 °F 87.2 °F 71.6 °F 70% 29.64 in 10.0 mi West 5.8 mph - N/A   Partly Cloudy
7:35 PM 80.6 °F 84.6 °F 71.6 °F 74% 29.64 in 10.0 mi WSW 5.8 mph - N/A   Clear
7:55 PM 80.6 °F 84.6 °F 71.6 °F 74% 29.63 in 10.0 mi WSW 6.9 mph - N/A   Scattered Clouds
8:15 PM 80.6 °F 83.9 °F 69.8 °F 70% 29.65 in 10.0 mi WSW 8.1 mph - N/A   Scattered Clouds
8:35 PM 80.6 °F 84.6 °F 71.6 °F 74% 29.66 in 10.0 mi West 6.9 mph - N/A   Mostly Cloudy
8:55 PM 78.8 °F - 71.6 °F 78% 29.65 in 10.0 mi West 3.5 mph - N/A   Overcast
9:15 PM 78.8 °F - 71.6 °F 78% 29.66 in 10.0 mi WSW 5.8 mph - N/A   Mostly Cloudy
9:35 PM 78.8 °F - 71.6 °F 78% 29.67 in 10.0 mi SW 4.6 mph - N/A   Clear
9:55 PM 77.0 °F - 71.6 °F 83% 29.68 in 10.0 mi WSW 4.6 mph - N/A   Scattered Clouds
10:15 PM 77.0 °F - 71.6 °F 83% 29.69 in 10.0 mi WSW 5.8 mph - N/A   Partly Cloudy
10:35 PM 77.0 °F - 69.8 °F 78% 29.68 in 10.0 mi WSW 5.8 mph - N/A   Clear
10:55 PM 77.0 °F - 69.8 °F 78% 29.68 in 10.0 mi WSW 4.6 mph - N/A   Clear
11:15 PM 75.2 °F - 69.8 °F 83% 29.68 in 10.0 mi WSW 6.9 mph - N/A   Clear
11:35 PM 75.2 °F - 69.8 °F 83% 29.68 in 10.0 mi WSW 6.9 mph - N/A   Clear
11:55 PM 75.2 °F - 69.8 °F 83% 29.69 in 10.0 mi WSW 6.9 mph - N/A   Clear